View from above orbital plane
|
View from above satellite
|
Ground track
|
The orbit data is extracted from the following two-line orbital elements,
1 12792U 81084B 21015.63989067 .00000016 00000-0 14189-4 0 9993
2 12792 74.0297 146.4427 0012600 116.3909 243.8539 14.37606062 62757
Epoch (UTC): | 15 January 2021 15:21:26 |
Eccentricity: | 0.0012600 |
inclination: | 74.0297° |
perigee height: | 757 km |
apogee height: | 775 km |
right ascension of ascending node: | 146.4427° |
argument of perigee: | 116.3909° |
revolutions per day: | 14.37606062 |
mean anomaly at epoch: | 243.8539° |
orbit number at epoch: | 6275 |
The dashed part of the orbit path shows where the satellite is in the earth's shadow,
|
|